www.pogodaiklimat.ru

Погода и климат >> Архив погоды >> Канада >> Dubawnt Lake


ПОГОДА в Dubawnt Lake

  • Прогноз погоды в Dubawnt Lake
  • Монитор погоды в Dubawnt Lake
  • Климат города

АРХИВ ПОГОДЫ в Dubawnt Lake

Время (UTC), дата Ветер
(напр.,м/с)
 
Видим.   Явления Облачность Т
(С)
Тd
(С)
f
(%)
Тe
(С)
Тes
(С)
Комфортность P
(гПа)
Po
(гПа)
Тmin
(С)
Tmax
(С)
R
(мм)
R24
(мм)
S
(см)
15 18.04 СВ 1 16 км слаб. снег 10/10 600 м
[]
-7.2 -11.8 70 -9 -9 1023.0 958.8
18 18.04 С 3 16 км ясно -3.7 -11.2 56 -8 -0 1022.0 957.9 -8.5 -3.7
21 18.04 СЗ 3 16 км 5/5 1000 м
[]
-1.5 -11.3 47 -5 -2 1020.6 956.8
00 19.04 СЗ 3 16 км 10/10 1000 м
[]
-2.6 -8.8 62 -7 -7 1020.5 956.6 -8.5 -1.3
03 19.04 З 1 16 км 5/5 1000 м
[]
-3.9 -7.9 74 -4 -4 1020.2 956.3
06 19.04 В 1 2800 м слаб. снег 10/10 600 м
[]
-4.8 -5.9 92 -7 -7 1020.4 956.6 -8.5 -1.3
09 19.04 СВ 2 2400 м слаб. снег 10/10 600 м
[]
-5.6 -6.4 94 -9 -9 1020.1 956.4
12 19.04 СВ 3 4800 м слаб. снег 10/10 1000 м
[]
-6.3 -7.3 93 -12 -12 1020.4 956.6 -6.3 -1.3
15 19.04 В 1 16 км 10/0 2000 м
[]
-5.1 -7.2 85 -8 -5 1020.7 956.9
18 19.04 С 2 16 км ясно -0.8 -6.4 66 -4 +4 1020.3 956.7 -6.5 -0.8
21 19.04 СЗ 2 16 км 9/9 1000 м
[]
+1.9 -6.4 54 -1 -0 1020.4 956.9
00 20.04 С 3 16 км 10/10 1500 м
[]
+1.3 -6.3 57 -2 -2 1020.9 957.3 -6.5 +2.4
03 20.04 СВ 2 16 км 10/10 1000 м
[]
-0.1 -6.2 63 -3 -3 1021.0 957.4
06 20.04 Ю 2 16 км 10/10 600 м
[]
-0.6 -4.9 73 -3 -3 1021.0 957.6 -6.5 +2.4
09 20.04 СВ 1 16 км слаб. снег 10/10 600 м
[]
-1.1 -3.2 86 -2 -2 1020.7 957.5
12 20.04 С 1 16 км 10/10 600 м
[]
-1.4 -3.0 89 -2 -2 1020.8 957.5 -1.4 +2.4
15 20.04 З 2 16 км 10/10 1000 м
[]
+1.0 -3.3 73 -2 -2 1021.0 957.8
18 20.04 ЮЗ 2 16 км н/о +3.8 -5.2 52 +2 +2 1020.1 957.1 -1.4 +4.1
21 20.04 С 3 н/о н/о +5.0 -4.3 51 +2 +2 1019.6 956.6
00 21.04 С 4 3200 м н/о +0.2 -0.8 93 -5 -5 1021.1 957.7 -1.4 +5.9
03 21.04 С 4 2000 м слаб. снег н/о -2.1 -2.7 96 -8 -8 1022.6 959.2
06 21.04 С 2 16 км н/о -4.3 -6.8 83 -8 -8 1024.7 961.2 -4.7 +5.9 6
09 21.04 С 2 16 км н/о -9.9 -12.0 85 -14 -14 1026.7 962.8
12 21.04 С 3 16 км н/о -13.7 -14.8 91 -19 -19 1029.8 965.1 -14.6 +5.9
15 21.04 СВ 3 16 км 3/3 300 м
[]
-10.2 -13.2 79 -16 -14 1032.0 967.3
18 21.04 С 3 16 км слаб. снег 10/10 600 м
[]
-7.0 -11.9 68 -12 -12 1032.8 968.1 -15.5 -4.3
21 21.04 СЗ 4 16 км 9/9 600 м
[]
-5.6 -12.7 57 -12 -11 1033.2 968.2
00 22.04 СЗ 3 16 км ясно -4.2 -12.8 51 -9 -7 1033.2 968.0 -15.5 -3.9
03 22.04 З 2 16 км ясно -8.1 -13.0 68 -12 -12 1032.9 967.7
06 22.04 С 3 16 км ясно -13.3 -16.2 79 -20 -20 1034.0 968.6 -15.5 -3.7
09 22.04 З 2 11 км ясно -17.7 -19.9 83 -22 -22 1034.1 968.5
12 22.04 СЗ 1 16 км 10/10 1500 м
[]
-15.3 -17.2 85 -16 -16 1033.5 968.2 -18.7 -3.7
15 22.04 С 4 16 км 9/9 300 м
[]
-8.9 -13.4 70 -16 -15 1033.2 968.1
18 22.04 СЗ 6 14 км 10/10 1000 м
[]
-7.8 -14.6 58 -16 -16 1033.8 968.4 -18.7 -7.4
21 22.04 СЗ 4 16 км 9/9 1000 м
[]
-6.8 -15.3 51 -13 -12 1033.9 968.2
00 23.04 С 4 16 км 9/9 1000 м
[]
-6.3 -16.2 45 -12 -12 1032.6 967.2 -18.7 -5.8
03 23.04 З 1 16 км ясно -11.9 -15.7 73 -12 -12 1031.5 966.2
06 23.04 ЮЗ 1 16 км ясно -17.9 -20.3 81 -21 -21 1031.3 965.7 -18.7 -5.8 18
09 23.04 З 1 16 км ясно -20.2 -22.8 80 -21 -21 1030.3 964.7
12 23.04 ЮЗ 1 16 км ясно -20.3 -22.5 83 -23 -23 1029.0 963.5 -21.6 -5.8
15 23.04 СВ 3 16 км ясно -9.1 -17.2 52 -14 -10 1028.1 963.0
18 23.04 С 2 16 км ясно -5.5 -16.8 41 -9 -0 1026.7 961.6 -21.6 -5.5
21 23.04 С 3 16 км ясно -2.9 -16.9 33 -7 -1 1024.7 959.7
00 24.04 СВ 5 16 км ясно -2.1 -16.8 31 -7 -6 1023.1 958.3 -21.6 -1.9
03 24.04 В 3 16 км ясно -6.0 -16.1 45 -11 -11 1022.2 957.9
06 24.04 В 4 16 км ясно -9.9 -15.7 63 -17 -17 1023.0 958.6 -21.6 -1.9
09 24.04 В 3 16 км ясно -14.0 -18.3 70 -21 -21 1022.5 958.1
12 24.04 В 3 16 км ясно -15.8 -19.1 76 -23 -22 1022.1 957.6 -16.0 -1.9
15 24.04 В 4 16 км ясно -8.3 -16.1 53 -14 -11 1021.8 957.6
18 24.04 В 5 16 км ясно -1.6 -13.1 41 -7 -2 1020.7 956.7 -16.0 -1.6
21 24.04 ЮВ 4 16 км ясно +0.6 -13.3 34 -4 +1 1020.5 956.4
00 25.04 ЮВ 4 14 км ясно +0.9 -13.1 34 -3 -1 1020.4 956.2 -16.0 +1.1
03 25.04 В 3 16 км ясно -2.3 -12.4 46 -6 -6 1021.0 957.1
06 25.04 В 3 16 км ясно -7.1 -11.7 70 -12 -12 1022.1 958.2 -16.0 +1.1 20
09 25.04 ЮВ 3 16 км ясно -8.2 -12.8 69 -13 -13 1022.8 958.9

 

Местоположение метеостанции Dubawnt Lake (Канада): широта 63.23 долгота -101.70 высота над уровнем моря 237 м.

В архиве по умолчанию представлена погода в Dubawnt Lake за последнюю неделю. Архивные данные за месяц целиком и за предыдущие месяцы, начиная с января 2011 года, Вы можете получить, выбрав интересующий диапазон дат из раскрывающегося списка и нажав кнопку "Ввод!".

Внимание! Время в таблицах - всемирное. Для получения местного времени необходимо прибавить поправку, которая в Dubawnt Lake равна -6 ч.

Смотрите также архив погоды в соседних городах и на ближайших метеорологических станциях:

Погода в Hanbury River ARS (Канада) (176 км)
Погода в Robertson Lake (Канада) (211 км)
Погода в Baker Lake Airport (Канада) (302 км)
Погода в Baker Lake Climate (Канада) (305 км)
Погода в Fort Reliance (aut) (Канада) (379 км)
Погода в Porter Lake (Канада) (387 км)
Погода в Back River MAPS (Канада) (402 км)
Погода в Lustel Ke A (Канада) (461 км)
Погода в Arviat Climate (Канада) (462 км)
Погода в Arviat (Канада) (462 км)

Пояснения к столбцам:

Ветер - указаны скорость ветра в м/с - средняя за 10 мин, порывы в срок и между сроками (в фигурных скобках) и направление, откуда дует ветер: С - северный, СВ - северо-восточный, В - восточный, ЮВ - юго-восточный, Ю - южный, ЮЗ - юго-западный, З - западный, СЗ - северо-западный.
Видимость - горизонтальная дальность видимости в метрах или километрах. При видимости от 1 до 10 км при отсутствии осадков обычно наблюдается дымка, при ухудшении видимости до 1 км и менее - туман. В сухую погоду видимость может ухудшаться дымом, пылью или мглою.
Явления - указаны атмосферные явления, наблюдавшиеся в срок или в последний час перед сроком; фигурными скобками обозначены явления, наблюдавшиеся между сроками (за 1-3 часа до срока); квадратными скобками обозначены град или гололедные отложения с указанием их диаметра в мм.
Облачность - указаны через наклонную черту общая и нижняя облачность в баллах и высота нижней границы облаков в метрах; квадратными скобками обозначены формы облаков: Ci - перистые, Cs - перисто-слоистые, Cc - перисто-кучевые, Ac - высококучевые, As - высокослоистые, Sc - слоисто-кучевые, Ns - слоисто-дождевые, Cu - кучевые, Cb - кучево-дождевые. Подробнее классификацию облаков см. в Атласе облаков (PDF).
T - Температура воздуха - температура, измеренная на высоте 2 м над землей.
Td - Температура точки росы - температура, при понижении до которой содержащийся в воздухе водяной пар достигнет насыщения.
f - Относительная влажность воздуха - влажноcть воздуха, измеренная на высоте 2 м над землей.
Te - Эффективная температура - температура, которую ощущает одетый по сезону человек в тени. Характеристика душности погоды. При расчете учитывается влияние влажности воздуха и скорости ветра на теплоощущения человека.
Tes - Эффективная температура на солнце - температура, которую ощущает человек, с поправкой на солнечный нагрев. Характеристика знойности погоды. Зависит от высоты солнца над горизонтом, облачности и скорости ветра. Ночью, в пасмурную погоду, а также при ветре 12 м/с и более поправка равна нулю.
P - Атмосферное давление - приведенное к уровню моря атмосферное давление.
Po - Атмосферное давление - измеренное на уровне метеостанции атмосферное давление.
Tmin - Минимальная температура - минимум температуры воздуха на высоте 2 м над землей.
Tmax - Максимальная температура - максимум температуры воздуха на высоте 2 м над землей.
R - Количество осадков - Количество выпавших осадков за период времени, мм. При наведении курсора мыши на число - период времени, за который выпало указанное количество осадков.
R24 - Количество осадков - Количество выпавших осадков за 24 часа, мм.
S - Снежный покров - Высота снежного покрова, см. При наведении курсора мыши на число - состояние снежного покрова и степень покрытия местности в баллах.